Weather History for St. Cloud, MN

Change the Weather History Date:

Tuesday, June 12, 2012

  Actual Average Record
Temperature  
Mean Temperature 58 °F 65 °F  
Max Temperature 69 °F 77 °F 95 °F (1988)
Min Temperature 46 °F 53 °F 40 °F (1974)
Degree Days  
Heating Degree Days 7 3  
Month to date heating degree days 26 48  
Since 1 June heating degree days 26 48  
Since 1 July heating degree days 6742 8502  
Cooling Degree Days 0 2  
Month to date cooling degree days 57 23  
Year to date cooling degree days 108 48  
Since 1 June cooling degree days 57 23  
Growing Degree Days 8 (Base 50)    
Moisture  
Dew Point 42 °F    
Average Humidity 63    
Maximum Humidity 93    
Minimum Humidity 32    
Precipitation  
Precipitation T in 0.15 in 1.68 in (1908)
Month to date precipitation 0.59 1.58  
Year to date precipitation 14.91 9.89  
Snow  
Snow 0.00 in 0.00 in 0.00 in ()
Month to date snowfall 0.0 0.0  
Since 1 June snowfall 0.0 0.0  
Since 1 July snowfall 27.4 45.7  
Snow Depth 0.00 in    
Sea Level Pressure  
Sea Level Pressure 30.14 in    
Wind  
Wind Speed 7 mph (NW)    
Max Wind Speed 18 mph    
Max Gust Speed 25 mph    
Visibility 10 miles    
Events Rain    
T = Trace of Precipitation, MM = Missing Value Source: NWS Daily Summary

Daily Weather History Graph

Daily Weather History Graph

Search for Another Location

Airport:

Trip Planner

Search our weather history database for the weather conditions in past years. The results will help you decide how hot, cold, wet, or windy it might be!

Date:

Astronomy

Jun. 12, 2012 Rise Set
Actual Time 5:26 AM CDT 9:05 PM CDT
Civil Twilight 4:48 AM CDT 9:43 PM CDT
Nautical Twilight 3:58 AM CDT 10:34 PM CDT
Astronomical Twilight 2:50 AM CDT 11:42 PM CDT
Moon 1:29 AM CDT (6/12) 2:40 PM CDT (6/12)
Length of Visible Light 16h 54m
Length of Day
15h 39m
Last Quarter, 38% of the Moon is Illuminated
Jun 12
Last Quarter
Jun 19
New
Jun 26
First Quarter
Jul 3
Full
Jul 10
Last Quarter

Hourly Weather History & Observations

Time (CDT) Temp. Windchill Dew Point Humidity Pressure Visibility Wind Dir Wind Speed Gust Speed Precip Events Conditions
12:53 AM 51.1 °F - 44.1 °F 77% 30.04 in 10.0 mi NW 13.8 mph - N/A   Mostly Cloudy
1:53 AM 48.9 °F - 45.0 °F 86% 30.07 in 10.0 mi NW 12.7 mph 19.6 mph 0.00 in   Overcast
2:01 AM 48.2 °F - 44.6 °F 87% 30.04 in 10.0 mi NW 10.4 mph - N/A   Overcast
2:53 AM 50.0 °F - 44.1 °F 80% 30.09 in 10.0 mi NW 10.4 mph - N/A   Overcast
3:06 AM 48.2 °F - 44.6 °F 87% 30.06 in 6.0 mi North 6.9 mph 16.1 mph 0.00 in Rain Light Rain
3:28 AM 48.2 °F - 44.6 °F 87% 30.06 in 10.0 mi WNW 8.1 mph - 0.00 in   Mostly Cloudy
3:53 AM 48.9 °F - 44.1 °F 83% 30.09 in 10.0 mi NW 11.5 mph 16.1 mph 0.00 in   Mostly Cloudy
4:50 AM 48.2 °F - 42.8 °F 82% 30.08 in 10.0 mi NW 10.4 mph - N/A   Mostly Cloudy
4:53 AM 46.9 °F - 42.1 °F 83% 30.12 in 10.0 mi WNW 10.4 mph - N/A   Scattered Clouds
5:53 AM 46.0 °F 41.4 °F 42.1 °F 86% 30.14 in 10.0 mi NW 9.2 mph - N/A   Clear
6:53 AM 48.0 °F - 41.0 °F 77% 30.15 in 10.0 mi NW 11.5 mph - N/A   Clear
7:53 AM 51.1 °F - 41.0 °F 68% 30.17 in 10.0 mi NW 13.8 mph 17.3 mph N/A   Scattered Clouds
8:02 AM 51.8 °F - 41.0 °F 67% 30.14 in 10.0 mi NW 12.7 mph - N/A   Mostly Cloudy
8:20 AM 51.8 °F - 41.0 °F 67% 30.14 in 10.0 mi North 11.5 mph 19.6 mph N/A   Scattered Clouds
8:53 AM 51.1 °F - 41.0 °F 68% 30.19 in 10.0 mi NW 9.2 mph - N/A   Scattered Clouds
9:53 AM 55.0 °F - 42.1 °F 62% 30.20 in 10.0 mi NNW 8.1 mph - N/A   Partly Cloudy
10:53 AM 57.0 °F - 37.9 °F 49% 30.21 in 10.0 mi WNW 8.1 mph - N/A   Clear
11:53 AM 60.8 °F - 39.2 °F 45% 30.18 in 10.0 mi NNW 9.2 mph 16.1 mph N/A   Clear
12:53 PM 62.1 °F - 36.0 °F 38% 30.21 in 10.0 mi WNW 8.1 mph - N/A   Clear
1:53 PM 64.0 °F - 37.0 °F 37% 30.19 in 10.0 mi NW 8.1 mph 18.4 mph N/A   Clear
2:53 PM 66.0 °F - 37.0 °F 34% 30.19 in 10.0 mi NNW 8.1 mph - N/A   Clear
3:53 PM 66.9 °F - 37.9 °F 34% 30.18 in 10.0 mi Variable 6.9 mph - N/A   Clear
4:53 PM 69.1 °F - 39.0 °F 33% 30.16 in 10.0 mi WSW 4.6 mph - N/A   Clear
5:53 PM 68.0 °F - 37.9 °F 33% 30.16 in 10.0 mi Variable 4.6 mph - N/A   Clear
6:53 PM 68.0 °F - 37.0 °F 32% 30.14 in 10.0 mi WSW 6.9 mph - N/A   Clear
7:53 PM 66.0 °F - 39.0 °F 37% 30.14 in 10.0 mi West 4.6 mph - N/A   Clear
8:53 PM 59.0 °F - 45.0 °F 60% 30.12 in 10.0 mi Calm Calm - N/A   Clear
9:53 PM 52.0 °F - 46.9 °F 83% 30.14 in 10.0 mi Calm Calm - N/A   Clear
10:53 PM 51.1 °F - 46.9 °F 86% 30.14 in 10.0 mi Calm Calm - N/A   Clear
11:53 PM 48.9 °F - 46.0 °F 90% 30.14 in 10.0 mi Calm Calm - N/A   Clear